Wind_Speed
85 79 78 76 75 79 74 74 80 74 75 72 72 69 70 69 65 65 66 72 80 80 77 74 76 68 66 73 71 62 62 61 62 63 54 54 47 46 40 38 32 30 32
78 81 86 82 73 75 78 78 73 77 77 72 73 74 72 70 69 67 65 64 66 70 76 73 65 75 67 63 76 77 68 70 69 66 67 61 56 55 36 35 37 28 27
71 69 73 66 59 69 75 77 83 83 83 78 70 73 75 74 73 71 72 72 69 69 69 70 66 63 68 73 66 70 75 76 78 72 69 63 63 52 56 50 40 30 28
81 74 73 72 76 72 77 78 84 78 81 86 84 79 72 69 73 75 74 76 76 75 75 75 75 67 65 61 65 66 66 70 69 64 63 60 54 54 52 46 40 38 33
80 81 81 81 87 89 85 83 87 89 92 93 94 82 76 78 76 75 74 74 76 82 78 78 78 78 71 67 64 64 64 70 69 66 66 60 59 55 55 49 41 32 34
85 82 86 88 93 99 97 90 97 102 101 100 96 96 90 75 79 79 81 70 79 81 81 84 81 79 79 73 67 61 67 70 71 68 71 63 61 54 54 48 41 33 29
96 94 93 92 93 99 101 99 100 102 101 102 108 105 101 100 96 92 86 78 75 74 86 86 85 82 81 77 70 62 64 58 62 66 62 62 64 61 53 42 37 31 30
111 106 101 99 103 102 107 110 107 108 112 110 110 111 105 107 106 100 95 85 76 77 78 84 84 82 82 79 73 65 65 60 57 58 58 55 55 60 59 50 43 37 37
110 112 115 108 110 112 112 114 112 112 112 113 116 114 113 115 117 102 94 90 92 80 80 82 83 88 85 84 76 69 72 72 62 62 57 55 54 55 54 51 50 43 43
95 108 120 124 123 123 124 125 125 124 123 120 120 121 120 118 106 93 95 96 90 85 80 84 78 81 85 82 81 74 71 81 77 68 60 58 56 55 54 50 44 36 39
75 84 94 102 113 117 124 129 129 127 123 123 122 117 109 96 95 101 94 94 78 76 72 67 73 73 81 86 84 80 71 80 84 81 71 65 62 62 63 56 52 46 38
62 66 73 78 82 88 95 106 113 111 104 105 97 97 94 90 84 81 77 71 71 68 67 60 64 72 80 82 83 83 80 75 82 87 87 76 75 66 66 65 55 48 43
50 51 53 57 61 63 64 66 67 66 64 66 67 67 69 70 72 71 67 64 60 60 61 61 61 65 76 82 81 83 82 78 74 75 87 87 78 82 72 64 62 60 58
47 46 46 45 45 45 47 49 49 50 52 54 56 59 62 63 62 62 63 62 57 55 57 58 56 62 68 81 82 80 82 81 77 73 71 82 90 87 80 74 66 62 64
40 39 38 39 38 38 39 40 40 41 44 46 49 51 54 57 56 57 55 54 52 51 50 54 56 60 67 73 80 83 82 80 80 78 74 74 76 86 90 80 74 67 69
31 31 30 30 30 31 31 32 33 36 37 39 44 50 52 54 52 50 49 47 49 49 47 51 55 61 68 71 75 80 83 83 81 80 80 77 77 79 79 83 85 80 66
25 25 24 24 25 26 27 29 29 31 33 33 36 40 43 43 45 44 42 42 44 47 49 47 48 56 66 69 72 76 79 81 82 81 81 81 79 78 78 83 86 88 81
23 24 24 24 23 23 26 28 31 33 33 30 29 33 32 30 31 32 34 36 40 42 45 45 46 48 53 61 67 70 75 78 80 81 83 83 85 84 82 80 83 85 85
24 25 26 26 25 27 29 32 32 33 27 24 19 20 23 21 21 24 27 31 34 37 38 40 41 44 48 53 57 62 66 69 74 78 82 84 84 83 84 84 83 82 83
29 29 29 30 30 29 28 30 28 26 21 19 17 17 18 16 15 17 20 22 24 28 32 34 36 39 42 47 51 56 59 63 67 70 75 77 82 85 87 88 86 84 81
32 33 32 34 34 34 32 30 27 25 21 17 16 16 16 12 11 10 12 14 17 20 23 25 28 31 35 40 46 50 53 56 59 63 65 68 71 77 82 83 83 83 84
38 38 37 36 35 33 32 32 30 25 23 21 16 13 16 15 13 12 11 10 12 14 16 19 21 24 29 33 39 44 47 49 49 51 54 57 61 64 66 66 75 80 85
38 38 37 35 34 32 32 32 30 28 25 22 19 17 17 18 17 16 17 18 17 16 17 19 20 21 25 27 29 33 37 40 41 42 45 49 51 53 55 58 63 74 81
36 36 34 31 29 28 31 29 27 28 27 23 21 21 21 22 22 23 22 24 23 21 20 19 20 21 23 24 24 28 31 32 35 38 41 44 46 49 54 56 58 65 74
26 23 22 23 23 24 25 25 24 28 28 24 21 22 24 26 28 28 27 25 23 22 21 21 21 20 20 21 23 26 28 30 32 35 37 41 43 47 49 53 57 63 72
15 14 15 15 15 17 19 20 23 24 25 22 23 23 26 28 28 26 24 22 19 18 19 19 20 20 19 19 21 25 26 27 29 32 36 38 42 44 46 53 60 66 72
Wind_Direction
257 253 258 262 264 268 265 262 258 254 254 253 253 251 255 256 255 255 251 247 248 253 258 260 254 259 254 254 256 256 259 262 269 269 264 268 277 281 292 289 307 312 326
255 253 251 258 269 268 261 260 258 255 253 253 254 257 256 258 259 257 256 254 255 257 257 258 262 257 262 261 255 254 256 261 264 264 267 270 273 275 284 287 296 305 314
248 255 255 262 260 263 265 264 265 263 259 257 257 256 257 256 258 260 262 261 260 259 261 261 262 262 262 261 264 259 259 261 262 267 269 268 268 270 273 282 288 295 306
244 247 250 247 248 255 261 263 259 259 259 261 261 257 251 257 260 259 258 261 261 260 261 262 263 263 259 263 262 262 259 260 259 260 262 261 267 269 275 279 282 289 298
245 242 248 246 245 250 251 254 257 258 258 263 266 263 265 257 255 261 262 261 262 262 259 260 261 262 262 263 263 257 254 253 253 256 257 258 262 266 270 280 279 283 291
240 238 241 247 251 253 257 255 254 255 260 265 266 270 267 272 271 256 269 256 260 256 257 257 257 259 260 261 263 258 251 251 250 252 252 253 260 267 272 273 273 280 279
237 240 242 246 249 254 254 254 254 258 263 267 267 270 273 277 283 285 280 277 275 262 249 253 254 253 255 257 258 259 245 246 249 247 252 253 255 259 266 264 268 274 275
236 239 241 244 247 253 257 259 260 260 264 265 267 271 274 279 282 285 282 280 274 269 254 250 250 251 251 250 254 256 236 237 243 246 251 257 261 263 262 255 262 268 272
236 241 241 244 246 249 254 258 261 263 265 265 268 271 276 276 279 279 279 278 277 266 260 253 247 245 244 245 245 249 235 234 235 241 245 249 255 261 259 255 263 264 268
243 245 245 245 249 251 252 256 259 262 263 266 269 271 272 275 272 275 278 275 273 264 261 252 248 242 243 242 243 240 242 231 235 239 237 244 246 239 258 259 262 254 261
256 255 254 252 252 254 256 256 257 260 265 269 275 272 270 266 271 275 273 275 266 267 259 251 245 240 238 238 239 236 238 237 235 233 237 237 245 245 252 256 261 260 261
258 259 260 260 261 261 261 261 262 264 264 261 266 261 264 265 270 271 270 268 264 262 260 254 249 240 235 232 234 234 234 237 237 237 234 236 240 247 246 251 255 263 256
266 262 259 258 259 262 263 264 264 264 264 264 265 267 267 268 265 268 270 267 263 262 261 256 249 241 233 228 230 231 233 236 239 238 239 236 235 240 245 249 253 253 256
276 274 272 271 269 266 264 263 264 266 267 267 268 267 266 268 268 267 266 265 263 259 255 252 243 239 232 226 227 228 231 232 236 238 237 239 238 239 243 246 250 248 255
272 271 271 271 271 271 271 272 272 273 272 270 268 268 267 266 264 263 261 260 259 255 250 246 238 234 231 226 225 227 230 231 234 235 237 237 239 241 242 242 244 245 249
271 271 272 272 272 272 273 272 271 273 274 275 276 275 274 272 268 264 260 256 254 252 247 242 237 231 231 228 226 226 228 231 233 234 235 237 239 239 239 239 240 243 241
275 275 273 274 273 274 275 274 272 273 286 286 289 289 285 280 273 269 262 255 248 247 246 241 236 233 232 232 231 229 230 233 233 233 234 235 237 238 239 238 236 239 243
267 270 272 265 259 271 268 264 272 283 284 288 290 294 293 289 277 269 261 251 244 241 243 242 236 233 233 233 234 233 232 233 233 234 234 235 235 238 238 238 239 240 240
266 266 268 263 263 271 273 275 278 284 284 288 290 295 300 297 292 276 260 248 238 235 237 238 238 235 235 234 234 235 235 234 235 235 235 235 236 235 236 236 236 239 239
267 268 271 268 268 269 275 278 276 274 275 282 293 301 299 293 288 280 263 247 238 236 236 237 237 234 233 235 236 237 238 238 238 238 238 236 236 235 235 235 235 235 235
274 269 265 268 268 269 267 272 266 264 260 267 286 300 306 310 306 284 271 255 248 244 241 241 241 241 240 236 236 238 238 238 239 240 240 240 238 237 235 233 234 233 231
276 274 271 273 270 269 260 265 260 249 251 263 270 286 294 292 296 298 291 275 259 256 252 247 245 244 247 244 242 240 240 239 240 238 237 238 238 237 236 232 227 228 228
283 277 271 269 265 263 254 254 254 240 242 254 261 267 275 284 288 281 278 274 268 261 255 254 251 248 248 247 245 241 236 235 235 235 235 235 235 233 231 227 224 220 221
275 273 272 270 264 255 250 248 247 242 245 255 262 268 276 281 284 285 277 272 268 262 259 256 253 251 249 247 242 240 238 235 233 231 231 230 227 224 223 223 220 218 215
283 277 269 261 254 247 248 247 243 245 250 259 265 274 281 284 287 287 281 275 266 261 257 255 252 250 250 248 244 242 239 236 233 232 232 228 224 222 218 215 213 211 212
279 261 248 242 238 237 234 238 247 251 257 268 272 282 284 286 289 288 280 272 263 258 255 252 248 247 248 250 246 242 241 238 233 231 229 226 223 218 212 208 207 208 211
Height
10652 10662 10667 10671 10677 10681 10685 10688 10692 10693 10696 10700 10700 10700 10702 10704 10706 10710 10712 10714 10714 10713 10714 10717 10719 10719 10719 10722 10725 10727 10727 10729 10726 10726 10728 10730 10726 10722 10721 10724 10724 10721 10721
10637 10643 10649 10651 10653 10655 10660 10665 10669 10672 10675 10679 10683 10684 10688 10690 10691 10693 10695 10697 10696 10696 10698 10701 10701 10704 10702 10703 10709 10710 10712 10716 10716 10715 10717 10721 10716 10712 10714 10716 10716 10714 10713
10625 10627 10629 10631 10633 10636 10637 10638 10641 10645 10651 10659 10662 10666 10665 10671 10675 10676 10679 10682 10683 10683 10681 10682 10685 10687 10685 10689 10690 10695 10698 10699 10701 10705 10706 10710 10704 10700 10702 10707 10707 10706 10706
10605 10607 10609 10610 10612 10613 10615 10618 10616 10622 10625 10629 10636 10643 10650 10650 10655 10659 10660 10663 10666 10667 10669 10668 10669 10669 10671 10671 10677 10676 10686 10686 10688 10693 10695 10695 10689 10688 10694 10697 10698 10697 10698
10586 10589 10587 10587 10589 10590 10592 10593 10596 10597 10599 10604 10609 10618 10624 10632 10632 10638 10642 10646 10648 10648 10651 10650 10652 10653 10655 10656 10661 10662 10667 10671 10676 10679 10682 10681 10676 10681 10685 10687 10687 10688 10690
10567 10566 10565 10567 10567 10571 10572 10573 10573 10573 10578 10582 10583 10590 10597 10608 10611 10616 10623 10623 10627 10626 10628 10628 10631 10634 10634 10639 10645 10647 10651 10653 10660 10665 10666 10668 10663 10674 10677 10677 10678 10680 10679
10545 10544 10545 10547 10547 10547 10551 10553 10553 10554 10556 10559 10562 10566 10571 10574 10583 10584 10583 10589 10592 10596 10603 10607 10610 10612 10615 10621 10626 10633 10636 10639 10643 10649 10649 10652 10654 10661 10665 10667 10670 10672 10673
10522 10524 10524 10527 10527 10526 10528 10530 10534 10535 10535 10537 10538 10543 10550 10554 10556 10560 10559 10558 10565 10569 10575 10584 10587 10591 10596 10601 10607 10614 10622 10625 10627 10631 10634 10636 10637 10645 10654 10656 10660 10664 10663
10503 10504 10505 10506 10508 10508 10507 10507 10509 10513 10513 10518 10520 10523 10525 10528 10531 10532 10535 10533 10534 10542 10544 10553 10560 10564 10567 10576 10589 10595 10602 10610 10612 10618 10623 10626 10628 10631 10634 10645 10649 10653 10655
10484 10485 10485 10481 10485 10487 10486 10486 10485 10485 10489 10492 10496 10496 10499 10505 10502 10500 10502 10510 10508 10504 10517 10524 10529 10539 10542 10554 10566 10574 10580 10589 10595 10602 10610 10614 10620 10619 10617 10628 10634 10639 10643
10458 10460 10461 10461 10462 10461 10461 10461 10464 10465 10465 10470 10471 10470 10469 10468 10467 10472 10472 10478 10482 10481 10486 10494 10501 10511 10519 10530 10542 10553 10560 10565 10574 10584 10596 10605 10606 10609 10610 10614 10619 10626 10632
10440 10438 10437 10435 10435 10435 10435 10435 10438 10441 10442 10442 10445 10446 10442 10440 10443 10439 10443 10451 10457 10460 10457 10467 10474 10482 10489 10503 10518 10527 10537 10545 10555 10564 10579 10591 10599 10598 10598 10602 10606 10611 10618
10420 10420 10419 10418 10417 10416 10415 10415 10416 10418 10418 10417 10418 10418 10416 10416 10419 10420 10422 10426 10432 10433 10435 10442 10451 10457 10467 10480 10495 10505 10517 10528 10537 10546 10558 10571 10579 10584 10585 10588 10597 10599 10605
10400 10400 10399 10399 10399 10398 10398 10397 10398 10398 10398 10397 10398 10397 10396 10395 10397 10401 10404 10406 10409 10413 10418 10422 10430 10435 10445 10457 10471 10484 10497 10507 10518 10528 10537 10546 10556 10568 10575 10580 10584 10588 10591
10388 10388 10387 10387 10385 10385 10384 10383 10382 10382 10381 10381 10381 10379 10377 10377 10380 10383 10387 10389 10392 10395 10399 10402 10410 10418 10425 10436 10449 10463 10476 10487 10498 10508 10518 10525 10534 10545 10555 10567 10568 10578 10582
10376 10375 10375 10374 10373 10372 10370 10370 10370 10369 10368 10367 10364 10361 10360 10359 10361 10364 10368 10372 10375 10379 10384 10386 10393 10402 10407 10418 10430 10443 10454 10466 10478 10488 10499 10509 10516 10523 10536 10546 10555 10561 10572
10365 10364 10365 10364 10363 10362 10361 10360 10359 10360 10359 10356 10352 10348 10343 10342 10343 10346 10350 10355 10358 10362 10365 10375 10381 10388 10394 10404 10414 10426 10437 10447 10457 10468 10479 10490 10497 10507 10517 10525 10535 10545 10561
10357 10357 10357 10357 10356 10356 10354 10352 10350 10349 10349 10349 10345 10338 10334 10331 10330 10332 10334 10337 10342 10347 10352 10360 10369 10376 10383 10390 10398 10407 10417 10427 10438 10448 10458 10467 10478 10486 10497 10510 10517 10528 10544
10351 10350 10350 10350 10349 10348 10346 10345 10344 10341 10339 10338 10335 10332 10327 10324 10322 10322 10323 10325 10329 10333 10340 10346 10354 10363 10369 10375 10381 10389 10398 10409 10417 10425 10435 10445 10455 10467 10477 10488 10500 10510 10525
10343 10343 10342 10342 10342 10341 10339 10337 10335 10333 10332 10330 10328 10325 10322 10319 10316 10315 10317 10319 10322 10326 10330 10336 10343 10349 10355 10360 10365 10372 10380 10388 10396 10405 10412 10424 10433 10444 10454 10465 10479 10493 10510
10333 10333 10332 10332 10331 10331 10331 10329 10327 10326 10324 10323 10321 10320 10318 10317 10316 10313 10313 10315 10318 10321 10324 10329 10334 10338 10344 10349 10354 10357 10363 10370 10377 10384 10391 10400 10409 10419 10430 10445 10458 10473 10486
10322 10321 10321 10320 10320 10321 10322 10320 10319 10318 10318 10316 10315 10314 10314 10313 10313 10312 10311 10312 10314 10317 10320 10322 10325 10329 10331 10335 10339 10344 10349 10355 10362 10368 10374 10380 10387 10396 10406 10422 10438 10450 10463
10308 10306 10306 10307 10308 10309 10310 10311 10311 10311 10311 10309 10308 10308 10307 10307 10307 10308 10308 10308 10309 10311 10313 10315 10318 10321 10323 10325 10328 10331 10335 10340 10346 10353 10357 10363 10371 10380 10389 10401 10413 10429 10441
10292 10291 10292 10294 10296 10297 10299 10301 10303 10304 10304 10303 10303 10302 10301 10301 10300 10300 10301 10301 10302 10304 10306 10308 10309 10312 10313 10315 10318 10320 10324 10330 10334 10338 10343 10350 10357 10366 10375 10386 10397 10411 10425
10281 10281 10282 10284 10286 10288 10290 10293 10296 10297 10297 10297 10297 10296 10295 10293 10291 10291 10291 10292 10294 10296 10298 10300 10301 10303 10305 10307 10309 10310 10313 10317 10321 10325 10330 10335 10343 10351 10362 10374 10383 10396 10410
10272 10273 10274 10276 10279 10281 10284 10287 10289 10291 10291 10291 10290 10288 10287 10284 10283 10282 10282 10283 10285 10287 10289 10291 10293 10295 10297 10299 10300 10300 10303 10307 10311 10315 10318 10324 10331 10340 10351 10363 10372 10384 10398